Location: Bodham
(52.9000°N, 1.1667°E)
Time: 14:55:55
(UTC+00:00)

Cosmos 2112 Rocket - Pass Details

Date: 18 October 2025
Orbit: 753 x 782 km, 74.0° (Epoch: 13 November)

Event Time Altitude Azimuth Distance (km) Brightness Sun altitude
Rises 02:56:40 0° 336° (NNW) 3,255 7.3 -31.6°
Reaches altitude 10° 03:00:07 10° 359° (N) 2,318 6.8 -31.1°
Maximum altitude 03:03:10 15° 35° (NE) 1,960 6.7 -30.7°
Drops below altitude 10° 03:06:13 10° 71° (ENE) 2,301 7.4 -30.3°
Sets 03:09:36 0° 94° (E) 3,218 8.1 -29.9°
